LogID,LogEntryDate,LogEntryTime,LogEntrySeconds,LogNotes,AFR,STFT,CurrentLTFT,IdleLTFT,CruiseLTFT,Load,O2Sensor2,IPW,AFRMAP,LoadTiming,TimingAdv,KnockSum,RPM,Baro,MAP,Boost,WGDC_Active,MAF,IDC,InVVTtarget,ExVVTtarget,InVVTactual,ExVVTactual,TPS,APP,IAT,WGDCCorr,Speed,Battery,ECT,MAT,MAPCalcs,IMAPCalcs,MAFCalcs,ChosenCalc,Custom
1,2018-08-06,10:13:24.47530,0.2422,,0,-9.9609375,-12.5,-12.5,-9.765625,37.5,0,1.4,14.7,37.5,15,0,1070.3125,14.43125513,8.7803079,-5.65094723,0,1.4706,1.24869791666667,10,0,10.46875,-1.09375,14.5098039215686,9.61176470588235,84.2,0,0,14.51934,132.8,82.4,39.0625,0,37.5,37.5,
2,2018-08-06,10:13:24.50640,0.26731,,0,-9.9609375,-12.5,-12.5,-9.765625,37.5,0,1.4,14.7,37.5,15,0,1078.125,14.43125513,8.7803079,-5.65094723,0,1.4706,1.2578125,10,0,10.46875,-1.09375,14.5098039215686,9.61176470588235,84.2,0,0,14.51934,132.8,82.4,39.0625,0,37.5,37.5,
3,2018-08-06,10:13:24.53779,0.29244,,0,-9.9609375,-12.5,-12.5,-9.765625,37.5,0,1.4,14.7,37.5,15,0,1070.3125,14.43125513,8.683821,-5.74743413,0,1.509816,1.24869791666667,10,0,10.46875,-1.09375,14.5098039215686,9.61176470588235,84.2,0,0,14.51934,132.8,82.4,39.0625,0,37.5,37.5,
4,2018-08-06,10:13:24.55327,0.31942,,7.35,-10.15625,-12.5,-12.5,-9.765625,37.5,0,1.4,14.7,37.5,15,0,1085.9375,14.43125513,8.683821,-5.74743413,0,1.509816,1.26692708333333,10,0,10.625,-0.9375,14.5098039215686,9.61176470588235,84.2,0,0,14.51934,132.8,82.4,39.0625,0,37.5,37.5,
5,2018-08-06,10:13:24.58451,0.34732,,7.35,-10.15625,-12.5,-12.5,-9.765625,37.5,0,1.4,14.7,37.5,15,0,1093.75,14.43125513,8.7803079,-5.65094723,0,1.490208,1.27604166666667,10,0,10.625,-0.9375,14.5098039215686,9.61176470588235,84.2,0,0,14.51934,132.8,82.4,39.0625,0,37.5,37.5,
6,2018-08-06,10:13:24.61577,0.37245,,7.35,-10.15625,-12.5,-12.5,-9.765625,37.5,0,1.4,14.7,37.5,15,0,1101.5625,14.43125513,8.7803079,-5.65094723,0,1.490208,1.28515625,10,0,10.625,-0.9375,14.5098039215686,9.61176470588235,84.2,0,0,14.51934,132.8,82.4,39.0625,0,35.9375,37.5,
7,2018-08-06,10:13:24.64700,0.39965,,7.35,-10.15625,-12.5,-12.5,-9.765625,37.5,0,1.4,14.7,37.5,15,0,1101.5625,14.43125513,8.683821,-5.74743413,0,1.509816,1.28515625,10,0,10.625,-0.9375,14.5098039215686,9.61176470588235,84.2,0,0,14.51934,132.8,82.4,39.0625,0,37.5,37.5,
8,2018-08-06,10:13:24.66275,0.42711,,7.35,-10.15625,-12.5,-12.5,-9.765625,37.5,0,1.4,14.7,37.5,15,0,1101.5625,14.43125513,8.683821,-5.74743413,0,1.509816,1.28515625,10,0,10.625,-1.09375,14.5098039215686,9.61176470588235,84.2,0,0,14.51934,132.8,82.4,39.0625,0,37.5,37.5,
9,2018-08-06,10:13:24.69399,0.45441,,7.35,-10.15625,-12.5,-12.5,-9.765625,37.5,0,1.4,14.7,37.5,15,0,1093.75,14.43125513,8.4908472,-5.94040793,0,1.4706,1.27604166666667,10,0,10.625,-1.09375,14.5098039215686,9.61176470588235,84.2,0,0,14.51934,132.8,82.4,39.0625,0,37.5,37.5,
10,2018-08-06,10:13:24.72510,0.4794,,7.35,-10.3515625,-12.5,-12.5,-9.765625,37.5,0,1.4,14.7,37.5,15,0,1101.5625,14.43125513,8.4908472,-5.94040793,0,1.4706,1.28515625,10,0,10.625,-1.09375,14.5098039215686,9.61176470588235,84.2,0,0,14.51934,132.8,82.4,39.0625,0,37.5,37.5,
11,2018-08-06,10:13:24.74085,0.50698,,7.35,-10.3515625,-12.5,-12.5,-9.765625,37.5,0,1.4,14.7,37.5,15,0,1093.75,14.43125513,8.683821,-5.74743413,0,1.509816,1.27604166666667,10,0,10.625,-1.09375,14.5098039215686,9.61176470588235,84.2,0,0,14.51934,132.8,82.4,39.0625,0,37.5,37.5,
12,2018-08-06,10:13:24.77197,0.53424,,7.35,-10.3515625,-12.5,-12.5,-9.765625,37.5,0,1.4,14.7,37.5,15,0,1093.75,14.43125513,8.683821,-5.74743413,0,1.509816,1.27604166666667,10,0,10.46875,-1.09375,14.5098039215686,9.61176470588235,84.2,0,0,14.44601,132.8,82.4,37.5,0,37.5,37.5,
13,2018-08-06,10:13:24.80330,0.55894,,7.35,-10.3515625,-12.5,-12.5,-9.765625,37.5,0,1.4,14.7,37.5,15,0,1085.9375,14.43125513,8.5873341,-5.84392103,0,1.4706,1.26692708333333,10,0,10.46875,-1.09375,14.5098039215686,9.61176470588235,84.2,0,0,14.44601,132.8,82.4,37.5,0,37.5,37.5,
14,2018-08-06,10:13:24.81883,0.58423,,7.35,-10.3515625,-12.5,-12.5,-9.765625,37.5,0,1.4,14.7,37.5,16,0,1085.9375,14.43125513,8.5873341,-5.84392103,0,1.4706,1.26692708333333,10,0,10.46875,-1.09375,14.5098039215686,9.61176470588235,84.2,0,0,14.44601,132.8,82.4,37.5,0,37.5,37.5,
15,2018-08-06,10:13:24.85007,0.60911,,7.35,-10.3515625,-12.5,-12.5,-9.765625,37.5,0,1.4,14.7,37.5,15,0,1085.9375,14.43125513,8.4908472,-5.94040793,0,1.509816,1.26692708333333,10,0,10.46875,-1.09375,14.5098039215686,9.61176470588235,84.2,0,0,14.666,132.8,82.4,37.5,0,39.0625,37.5,
16,2018-08-06,10:13:24.88136,0.63409,,7.35,-10.546875,-12.5,-12.5,-9.765625,37.5,0,1.4,14.7,37.5,16,0,1085.9375,14.43125513,8.4908472,-5.94040793,0,1.509816,1.26692708333333,10,0,10.625,-1.09375,14.5098039215686,9.61176470588235,84.2,0,0,14.666,132.8,82.4,37.5,0,37.5,37.5,
17,2018-08-06,10:13:24.89694,0.66168,,7.35,-10.546875,-12.5,-12.5,-9.765625,37.5,0,1.4,14.7,37.5,16,0,1078.125,14.43125513,8.5873341,-5.84392103,0,1.509816,1.2578125,10,0,10.625,-1.09375,14.5098039215686,9.61176470588235,84.2,0,0,14.666,132.8,82.4,39.0625,0,39.0625,37.5,
18,2018-08-06,10:13:24.92833,0.69195,,7.35,-10.546875,-12.5,-12.5,-9.765625,37.5,0,1.4,14.7,37.5,16,0,1085.9375,14.43125513,8.5873341,-5.84392103,0,1.509816,1.26692708333333,10,0,10.625,-1.09375,14.5098039215686,9.61176470588235,84.2,0,0,14.59267,132.8,82.4,39.0625,0,37.5,37.5,
19,2018-08-06,10:13:24.95942,0.71881,,7.35,-10.546875,-12.5,-12.5,-9.765625,37.5,0,1.4,14.7,37.5,16,0,1078.125,14.43125513,8.4908472,-5.94040793,0,1.490208,1.2578125,10,0,10.625,-1.09375,14.5098039215686,9.61176470588235,84.2,0,0,14.59267,132.8,82.4,39.0625,0,39.0625,37.5,
20,2018-08-06,10:13:24.99080,0.74612,,7.35,-10.546875,-12.5,-12.5,-9.765625,37.5,0,1.4,14.7,37.5,16,0,1078.125,14.43125513,8.4908472,-5.94040793,0,1.490208,1.2578125,10,0,10.46875,-1.09375,14.5098039215686,9.61176470588235,84.2,0,0,14.59267,132.8,82.4,39.0625,0,39.0625,37.5,
21,2018-08-06,10:13:25.00629,0.77177,,7.35,-10.546875,-12.5,-12.5,-9.765625,37.5,0,1.3,14.7,37.5,18,0,1046.875,14.43125513,8.7803079,-5.65094723,0,1.490208,1.13411458333333,10,0,10.46875,-1.09375,14.5098039215686,9.61176470588235,84.2,0,0,14.59267,132.8,82.4,39.0625,0,39.0625,37.5,
22,2018-08-06,10:13:25.03766,0.79651,,7.35,-10.546875,-12.5,-12.5,-9.765625,39.0625,0,1.4,14.7,39.0625,17,0,1054.6875,14.43125513,8.7803079,-5.65094723,0,1.490208,1.23046875,10,0,10.46875,-1.09375,14.5098039215686,9.61176470588235,84.2,0,0,14.59267,132.8,82.4,39.0625,0,39.0625,37.5,
23,2018-08-06,10:13:25.06877,0.82144,,7.35,-10.546875,-12.5,-12.5,-9.765625,39.0625,0,1.4,14.7,39.0625,17,0,1054.6875,14.43125513,8.8767948,-5.55446033,0,1.4706,1.23046875,10,0,10.46875,-1.09375,14.5098039215686,9.61176470588235,84.2,0,0,14.59267,132.8,82.4,39.0625,0,37.5,37.5,
24,2018-08-06,10:13:25.08448,0.84628,,7.35,-10.546875,-12.5,-12.5,-9.765625,39.0625,0,1.4,14.7,39.0625,17,0,1054.6875,14.43125513,8.8767948,-5.55446033,0,1.4706,1.23046875,10,0,10.46875,-1.09375,14.5098039215686,9.61176470588235,84.2,0,0,14.51934,132.8,82.4,39.0625,0,37.5,37.5,
25,2018-08-06,10:13:25.11567,0.87364,,7.35,-10.546875,-12.5,-12.5,-9.765625,37.5,0,1.3,14.7,37.5,16,0,1078.125,14.43125513,8.7803079,-5.65094723,0,1.4706,1.16796875,10,0,10.46875,-1.09375,14.5098039215686,9.61176470588235,84.2,0,0,14.51934,132.8,82.4,39.0625,0,37.5,37.5,
26,2018-08-06,10:13:25.13126,0.8984,,7.35,-10.546875,-12.5,-12.5,-9.765625,37.5,0,1.4,14.7,37.5,16,0,1085.9375,14.43125513,8.7803079,-5.65094723,0,1.4706,1.26692708333333,10,0,10.46875,-1.09375,14.5098039215686,9.61176470588235,84.2,0,0,14.51934,132.8,82.4,39.0625,0,37.5,37.5,
27,2018-08-06,10:13:25.16250,0.92592,,7.35,-10.546875,-12.5,-12.5,-9.765625,37.5,0,1.4,14.7,37.5,15,0,1093.75,14.43125513,8.7803079,-5.65094723,0,1.490208,1.27604166666667,10,0,10.46875,-1.09375,14.5098039215686,9.61176470588235,84.2,0,0,14.51934,132.8,82.4,39.0625,0,35.9375,37.5,
28,2018-08-06,10:13:25.19374,0.95089,,7.35,-10.546875,-12.5,-12.5,-9.765625,37.5,0,1.4,14.7,37.5,15,0,1085.9375,14.43125513,8.7803079,-5.65094723,0,1.490208,1.26692708333333,10,0,10.625,-1.09375,14.5098039215686,9.61176470588235,84.2,0,0,14.51934,132.8,82.4,39.0625,0,37.5,37.5,
29,2018-08-06,10:13:25.22508,0.97847,,7.35,-10.546875,-12.5,-12.5,-9.765625,37.5,0,1.3,14.7,37.5,15,0,1078.125,14.43125513,8.5873341,-5.84392103,0,1.509816,1.16796875,10,0,10.625,-1.09375,14.5098039215686,9.61176470588235,84.2,0,0,14.51934,132.8,82.4,39.0625,0,37.5,37.5,
30,2018-08-06,10:13:25.24070,1.00344,,7.35,-10.546875,-12.5,-12.5,-9.765625,37.5,0,1.4,14.7,37.5,15,0,1070.3125,14.43125513,8.5873341,-5.84392103,0,1.509816,1.24869791666667,10,0,10.625,-1.09375,14.5098039215686,9.61176470588235,84.2,0,0,14.51934,132.8,82.4,39.0625,0,37.5,37.5,
31,2018-08-06,10:13:25.27185,1.03046,,7.35,-10.546875,-12.5,-12.5,-9.765625,37.5,0,1.4,14.7,37.5,15,0,1078.125,14.43125513,8.4908472,-5.94040793,0,1.490208,1.2578125,10,0,10.625,-1.09375,14.5098039215686,9.61176470588235,84.2,0,0,14.51934,132.8,82.4,39.0625,0,37.5,37.5,
32,2018-08-06,10:13:25.30315,1.05593,,7.35,-10.546875,-12.5,-12.5,-9.765625,37.5,0,1.4,14.7,37.5,15,0,1078.125,14.43125513,8.4908472,-5.94040793,0,1.490208,1.2578125,10,0,10.625,-0.9375,14.5098039215686,9.61176470588235,84.2,0,0,14.51934,132.8,82.4,39.0625,0,39.0625,37.5,
33,2018-08-06,10:13:25.31878,1.08116,,7.35,-10.546875,-12.5,-12.5,-9.765625,37.5,0,1.4,14.7,37.5,16,0,1078.125,14.43125513,8.5873341,-5.84392103,0,1.509816,1.2578125,10,0,10.625,-0.9375,14.5098039215686,9.61176470588235,84.2,0,0,14.59267,132.8,82.4,39.0625,0,37.5,37.5,
34,2018-08-06,10:13:25.34995,1.10833,,7.35,-10.546875,-12.5,-12.5,-9.765625,37.5,0,1.4,14.7,37.5,16,0,1070.3125,14.43125513,8.5873341,-5.84392103,0,1.509816,1.24869791666667,10,0,10.625,-0.9375,14.5098039215686,9.61176470588235,84.2,0,0,14.59267,132.8,82.4,39.0625,0,39.0625,37.5,
35,2018-08-06,10:13:25.38120,1.13681,,7.35,-10.546875,-12.5,-12.5,-9.765625,37.5,0,1.4,14.7,37.5,16,0,1070.3125,14.43125513,8.4908472,-5.94040793,0,1.509816,1.24869791666667,10,0,10.625,-0.9375,14.5098039215686,9.61176470588235,84.2,0,0,14.59267,132.8,82.4,39.0625,0,37.5,37.5,
36,2018-08-06,10:13:25.39682,1.16051,,7.35,-10.546875,-12.5,-12.5,-9.765625,37.5,0,1.4,14.7,37.5,17,0,1062.5,14.43125513,8.4908472,-5.94040793,0,1.509816,1.23958333333333,10,0,10.625,-1.09375,14.5098039215686,9.61176470588235,84.2,0,0,14.59267,132.8,82.4,39.0625,0,39.0625,37.5,
37,2018-08-06,10:13:25.42810,1.19097,,7.35,-10.546875,-12.5,-12.5,-9.765625,37.5,0,1.4,14.7,37.5,16,0,1062.5,14.43125513,8.4908472,-5.94040793,0,1.4706,1.23958333333333,10,0,10.625,-1.09375,14.5098039215686,9.61176470588235,84.2,0,0,14.59267,132.8,82.4,39.0625,0,37.5,37.5,
38,2018-08-06,10:13:25.45930,1.22118,,7.35,-10.546875,-12.5,-12.5,-9.765625,37.5,0,1.4,14.7,37.5,17,0,1054.6875,14.43125513,8.4908472,-5.94040793,0,1.4706,1.23046875,10,0,10.46875,-1.09375,14.5098039215686,9.61176470588235,84.2,0,0,14.59267,132.8,82.4,39.0625,0,37.5,37.5,
39,2018-08-06,10:13:25.49055,1.24569,,7.35,-10.546875,-12.5,-12.5,-9.765625,37.5,0,1.4,14.7,37.5,16,0,1070.3125,14.43125513,8.5873341,-5.84392103,0,1.509816,1.24869791666667,10,0,10.46875,-1.09375,14.5098039215686,9.61176470588235,84.2,0,0,14.51934,132.8,82.4,39.0625,0,37.5,37.5,
40,2018-08-06,10:13:25.50626,1.27298,,7.35,-10.546875,-12.5,-12.5,-9.765625,37.5,0,1.4,14.7,37.5,16,0,1070.3125,14.43125513,8.5873341,-5.84392103,0,1.509816,1.24869791666667,10,0,10.46875,-1.09375,14.5098039215686,9.61176470588235,84.2,0,0,14.51934,132.8,82.4,39.0625,0,37.5,37.5,
41,2018-08-06,10:13:25.53750,1.30288,,7.35,-10.546875,-12.5,-12.5,-9.765625,37.5,0,1.3,14.7,37.5,16,0,1078.125,14.43125513,8.683821,-5.74743413,0,1.490208,1.16796875,10,0,10.46875,-1.09375,14.5098039215686,9.61176470588235,84.2,0,0,14.51934,132.8,82.4,39.0625,0,37.5,37.5,
42,2018-08-06,10:13:25.56865,1.33008,,7.35,-10.546875,-12.5,-12.5,-9.765625,37.5,0,1.4,14.7,37.5,16,0,1085.9375,14.43125513,8.683821,-5.74743413,0,1.490208,1.26692708333333,10,0,10.46875,-1.09375,14.5098039215686,9.61176470588235,84.2,0,0,14.59267,132.8,82.4,39.0625,0,37.5,37.5,
43,2018-08-06,10:13:25.59990,1.35546,,7.35,-10.546875,-12.5,-12.5,-9.765625,37.5,0,1.4,14.7,37.5,15,0,1093.75,14.43125513,8.5873341,-5.84392103,0,1.490208,1.27604166666667,10,0,10.46875,-1.09375,14.5098039215686,9.61176470588235,84.2,0,0,14.59267,132.8,82.4,39.0625,0,37.5,37.5,
44,2018-08-06,10:13:25.61552,1.381,,7.35,-10.546875,-12.5,-12.5,-9.765625,37.5,0,1.4,14.7,37.5,15,0,1093.75,14.43125513,8.5873341,-5.84392103,0,1.490208,1.27604166666667,10,0,10.46875,-0.9375,14.5098039215686,9.61176470588235,84.2,0,0,14.59267,132.8,82.4,39.0625,0,37.5,37.5,
45,2018-08-06,10:13:25.64693,1.41011,,7.35,-10.546875,-12.5,-12.5,-9.765625,37.5,0,1.4,14.7,37.5,15,0,1085.9375,14.43125513,8.683821,-5.74743413,0,1.4706,1.26692708333333,10,0,10.46875,-0.9375,14.5098039215686,9.61176470588235,84.2,0,0,14.51934,132.8,82.4,39.0625,0,37.5,37.5,
46,2018-08-06,10:13:25.67811,1.44037,,7.35,-10.546875,-12.5,-12.5,-9.765625,37.5,0,1.4,14.7,37.5,16,0,1054.6875,14.43125513,8.683821,-5.74743413,0,1.4706,1.23046875,10,0,10.625,-0.9375,14.5098039215686,9.61176470588235,84.2,0,0,14.51934,132.8,82.4,39.0625,0,39.0625,37.5,
47,2018-08-06,10:13:25.70938,1.46804,,7.35,-10.546875,-12.5,-12.5,-9.765625,37.5,0,1.4,14.7,37.5,17,0,1054.6875,14.43125513,8.683821,-5.74743413,0,1.490208,1.23046875,10,0,10.625,-0.9375,14.5098039215686,9.61176470588235,84.2,0,0,14.51934,132.8,82.4,39.0625,0,37.5,37.5,
48,2018-08-06,10:13:25.72487,1.49277,,7.35,-10.546875,-12.5,-12.5,-9.765625,37.5,0,1.4,14.7,37.5,17,0,1054.6875,14.43125513,8.683821,-5.74743413,0,1.490208,1.23046875,10,0,10.625,-1.09375,14.5098039215686,9.61176470588235,84.2,0,0,14.51934,132.8,82.4,39.0625,0,37.5,37.5,
49,2018-08-06,10:13:25.75628,1.52277,,7.35,-10.546875,-12.5,-12.5,-9.765625,37.5,0,1.4,14.7,37.5,17,0,1062.5,14.43125513,8.5873341,-5.84392103,0,1.490208,1.23958333333333,10,0,10.625,-1.09375,14.5098039215686,9.61176470588235,84.2,0,0,14.51934,132.8,82.4,39.0625,0,35.9375,37.5,
50,2018-08-06,10:13:25.78745,1.55046,,7.35,-10.546875,-12.5,-12.5,-9.765625,37.5,0,1.4,14.7,37.5,15,0,1093.75,14.43125513,8.5873341,-5.84392103,0,1.490208,1.27604166666667,10,0,10.625,-1.09375,14.5098039215686,9.61176470588235,84.2,0,0,14.51934,132.8,82.4,39.0625,0,37.5,37.5,
51,2018-08-06,10:13:25.81859,1.57633,,7.35,-10.546875,-12.5,-12.5,-9.765625,37.5,0,1.4,14.7,37.5,15,0,1109.375,14.43125513,8.683821,-5.74743413,0,1.490208,1.29427083333333,10,0,10.625,-1.09375,14.5098039215686,9.61176470588235,84.2,0,0,14.59267,132.8,82.4,39.0625,0,37.5,37.5,
52,2018-08-06,10:13:25.84984,1.60249,,7.35,-10.546875,-12.5,-12.5,-9.765625,37.5,0,1.4,14.7,37.5,15,0,1109.375,14.43125513,8.683821,-5.74743413,0,1.490208,1.29427083333333,10,0,10.625,-1.09375,14.5098039215686,9.61176470588235,84.2,0,0,14.59267,132.8,82.4,39.0625,0,37.5,37.5,
53,2018-08-06,10:13:25.86546,1.63005,,7.35,-10.546875,-12.5,-12.5,-9.765625,37.5,0,1.4,14.7,37.5,15,0,1109.375,14.43125513,8.683821,-5.74743413,0,1.4706,1.29427083333333,10,0,10.625,-1.09375,14.5098039215686,9.61176470588235,84.2,0,0,14.59267,132.8,82.4,39.0625,0,37.5,37.5,
54,2018-08-06,10:13:25.89683,1.65972,,7.35,-10.546875,-12.5,-12.5,-9.765625,37.5,0,1.3,14.7,37.5,15,0,1078.125,14.43125513,8.683821,-5.74743413,0,1.4706,1.16796875,10,0,10.46875,-1.09375,14.5098039215686,9.61176470588235,84.2,0,0,14.59267,132.8,82.4,37.5,0,37.5,37.5,
55,2018-08-06,10:13:25.92811,1.68614,,7.35,-10.546875,-12.5,-12.5,-9.765625,37.5,0,1.4,14.7,37.5,15,0,1078.125,14.43125513,8.5873341,-5.84392103,0,1.490208,1.2578125,10,0,10.46875,-1.09375,14.5098039215686,9.61176470588235,84.2,0,0,14.59267,132.8,82.4,37.5,0,37.5,37.5,
56,2018-08-06,10:13:25.95932,1.71224,,7.35,-10.546875,-12.5,-12.5,-9.765625,37.5,0,1.4,14.7,37.5,15,0,1078.125,14.43125513,8.5873341,-5.84392103,0,1.490208,1.2578125,10,0,10.46875,-1.09375,14.5098039215686,9.61176470588235,84.2,0,0,14.59267,132.8,82.4,37.5,0,39.0625,37.5,
57,2018-08-06,10:13:25.97497,1.73804,,7.35,-10.546875,-12.5,-12.5,-9.765625,37.5,0,1.3,14.7,37.5,16,0,1078.125,14.43125513,8.683821,-5.74743413,0,1.490208,1.16796875,10,0,10.46875,-1.09375,14.5098039215686,9.61176470588235,84.2,0,0,14.51934,132.8,82.4,39.0625,0,37.5,37.5,
58,2018-08-06,10:13:26.00621,1.76491,,7.35,-10.546875,-12.5,-12.5,-9.765625,37.5,0,1.4,14.7,37.5,15,0,1109.375,14.43125513,8.683821,-5.74743413,0,1.490208,1.29427083333333,10,0,10.625,-1.09375,14.5098039215686,9.61176470588235,84.2,0,0,14.51934,132.8,82.4,39.0625,0,37.5,37.5,
59,2018-08-06,10:13:26.03737,1.79223,,7.35,-10.546875,-12.5,-12.5,-9.765625,37.5,0,1.4,14.7,37.5,15,0,1109.375,14.43125513,8.683821,-5.74743413,0,1.490208,1.29427083333333,10,0,10.625,-1.09375,14.5098039215686,9.61176470588235,84.2,0,0,14.51934,132.8,82.4,39.0625,0,35.9375,37.5,
60,2018-08-06,10:13:26.05304,1.82035,,7.35,-10.546875,-12.5,-12.5,-9.765625,37.5,0,1.4,14.7,37.5,15,0,1117.1875,14.43125513,8.683821,-5.74743413,0,1.490208,1.30338541666667,10,0,10.625,-1.09375,14.5098039215686,9.61176470588235,84.2,0,0,14.51934,132.8,82.4,39.0625,0,37.5,37.5,
61,2018-08-06,10:13:26.08430,1.84478,,7.35,-10.546875,-12.5,-12.5,-9.765625,37.5,0,1.4,14.7,37.5,14,0,1125,14.43125513,8.5873341,-5.84392103,0,1.4706,1.3125,10,0,10.625,-1.09375,14.5098039215686,9.61176470588235,84.2,0,0,14.51934,132.8,82.4,39.0625,0,37.5,37.5,
62,2018-08-06,10:13:26.11540,1.87368,,7.35,-10.546875,-12.5,-12.5,-9.765625,37.5,0,1.3,14.7,37.5,14,0,1125,14.43125513,8.5873341,-5.84392103,0,1.4706,1.21875,10,0,10.625,-1.09375,14.5098039215686,9.61176470588235,84.2,0,0,14.51934,132.8,82.4,39.0625,0,35.9375,37.5,
63,2018-08-06,10:13:26.14679,1.90032,,7.35,-10.546875,-12.5,-12.5,-9.765625,37.5,0,1.4,14.7,37.5,14,0,1101.5625,14.43125513,8.683821,-5.74743413,0,1.4706,1.28515625,10,0,10.625,-1.09375,14.5098039215686,9.61176470588235,84.2,0,0,14.51934,132.8,82.4,37.5,0,37.5,37.5,
64,2018-08-06,10:13:26.16227,1.92582,,7.35,-10.546875,-12.5,-12.5,-9.765625,37.5,0,1.4,14.7,37.5,15,0,1101.5625,14.43125513,8.683821,-5.74743413,0,1.4706,1.28515625,10,0,10.625,-1.09375,14.5098039215686,9.61176470588235,84.2,0,0,14.51934,132.8,82.4,37.5,0,37.5,37.5,
65,2018-08-06,10:13:26.19364,1.9535,,7.35,-10.546875,-12.5,-12.5,-9.765625,37.5,0,1.4,14.7,37.5,15,0,1085.9375,14.43125513,8.5873341,-5.84392103,0,1.490208,1.26692708333333,10,0,10.625,-1.09375,14.5098039215686,9.61176470588235,84.2,0,0,14.51934,132.8,82.4,37.5,0,37.5,37.5,
66,2018-08-06,10:13:26.22475,1.98009,,7.35,-10.546875,-12.5,-12.5,-9.765625,37.5,0,1.4,14.7,37.5,14,0,1093.75,14.43125513,8.5873341,-5.84392103,0,1.490208,1.27604166666667,10,0,10.46875,-1.09375,14.5098039215686,9.61176470588235,84.2,0,0,14.666,132.8,82.4,39.0625,0,37.5,37.5,
67,2018-08-06,10:13:26.24037,2.00798,,7.35,-10.546875,-12.5,-12.5,-9.765625,37.5,0,1.4,14.7,37.5,13,0,1109.375,14.43125513,8.683821,-5.74743413,0,1.490208,1.29427083333333,10,0,10.46875,-1.09375,14.5098039215686,9.61176470588235,84.2,0,0,14.666,132.8,82.4,39.0625,0,37.5,37.5,
68,2018-08-06,10:13:26.27171,2.03422,,7.35,-10.546875,-12.5,-12.5,-9.765625,37.5,0,1.3,14.7,37.5,14,0,1117.1875,14.43125513,8.683821,-5.74743413,0,1.490208,1.21028645833333,10,0,10.46875,-1.09375,14.5098039215686,9.61176470588235,84.2,0,0,14.666,132.8,82.4,39.0625,0,37.5,37.5,
69,2018-08-06,10:13:26.30292,2.06063,,7.35,-10.546875,-12.5,-12.5,-9.765625,37.5,0,1.4,14.7,37.5,15,0,1101.5625,14.43125513,8.683821,-5.74743413,0,1.490208,1.28515625,10,0,10.46875,-1.09375,14.5098039215686,9.61176470588235,84.2,0,0,14.51934,132.8,82.4,37.5,0,39.0625,37.5,
70,2018-08-06,10:13:26.33425,2.08788,,7.35,-10.546875,-12.5,-12.5,-9.765625,37.5,0,1.4,14.7,37.5,16,0,1085.9375,14.43125513,8.683821,-5.74743413,0,1.490208,1.26692708333333,10,0,10.625,-1.09375,14.5098039215686,9.61176470588235,84.2,0,0,14.51934,132.8,82.4,37.5,0,37.5,37.5,
71,2018-08-06,10:13:26.34984,2.11777,,7.35,-10.546875,-12.5,-12.5,-9.765625,37.5,0,1.4,14.7,37.5,15,0,1078.125,14.43125513,8.683821,-5.74743413,0,1.490208,1.2578125,10,0,10.625,-1.09375,14.5098039215686,9.61176470588235,84.2,0,0,14.51934,132.8,82.4,39.0625,0,35.9375,37.5,
72,2018-08-06,10:13:26.38096,2.14392,,7.35,-10.546875,-12.5,-12.5,-9.765625,37.5,0,1.3,14.7,37.5,15,0,1093.75,14.43125513,8.683821,-5.74743413,0,1.490208,1.18489583333333,10,0,10.625,-1.09375,14.5098039215686,9.61176470588235,84.2,0,0,14.51934,132.8,82.4,39.0625,0,35.9375,37.5,
73,2018-08-06,10:13:26.41233,2.17009,,7.35,-10.546875,-12.5,-12.5,-9.765625,37.5,0,1.4,14.7,37.5,15,0,1101.5625,14.43125513,8.5873341,-5.84392103,0,1.490208,1.28515625,10,0,10.625,-1.09375,14.5098039215686,9.61176470588235,84.2,0,0,14.51934,132.8,82.4,39.0625,0,37.5,37.5,
74,2018-08-06,10:13:26.44358,2.19995,,7.35,-10.546875,-12.5,-12.5,-9.765625,37.5,0,1.3,14.7,37.5,14,0,1109.375,14.43125513,8.5873341,-5.84392103,0,1.490208,1.20182291666667,10,0,10.625,-1.09375,14.5098039215686,9.61176470588235,84.2,0,0,14.51934,132.8,82.4,37.5,0,37.5,37.5,
75,2018-08-06,10:13:26.45910,2.2265,,7.35,-10.546875,-12.5,-12.5,-9.765625,37.5,0,1.4,14.7,37.5,14,0,1109.375,14.43125513,8.683821,-5.74743413,0,1.490208,1.29427083333333,10,0,10.625,-1.09375,14.5098039215686,9.61176470588235,84.2,0,0,14.51934,132.8,82.4,37.5,0,37.5,37.5,
76,2018-08-06,10:13:26.49031,2.25407,,7.35,-10.546875,-12.5,-12.5,-9.765625,37.5,0,1.3,14.7,37.5,16,0,1085.9375,14.43125513,8.683821,-5.74743413,0,1.490208,1.17643229166667,10,0,10.625,-1.09375,14.5098039215686,9.61176470588235,84.2,0,0,14.51934,132.8,82.4,37.5,0,37.5,37.5,
77,2018-08-06,10:13:26.52155,2.28295,,7.35,-10.546875,-12.5,-12.5,-9.765625,37.5,0,1.4,14.7,37.5,16,0,1085.9375,14.43125513,8.683821,-5.74743413,0,1.490208,1.26692708333333,10,0,10.625,-1.09375,14.5098039215686,9.61176470588235,84.2,0,0,14.51934,132.8,82.4,37.5,0,39.0625,37.5,
78,2018-08-06,10:13:26.55283,2.31109,,7.35,-10.546875,-12.5,-12.5,-9.765625,37.5,0,1.4,14.7,37.5,16,0,1085.9375,14.43125513,8.683821,-5.74743413,0,1.490208,1.26692708333333,10,0,10.625,-1.09375,14.5098039215686,9.61176470588235,84.2,0,0,14.51934,132.8,82.4,37.5,0,39.0625,37.5,
79,2018-08-06,10:13:26.58416,2.33903,,7.35,-10.546875,-12.5,-12.5,-9.765625,37.5,0,1.3,14.7,37.5,15,0,1062.5,14.43125513,8.683821,-5.74743413,0,1.490208,1.15104166666667,10,0,10.625,-1.09375,14.5098039215686,9.61176470588235,84.2,0,0,14.51934,132.8,82.4,37.5,0,37.5,37.5,
80,2018-08-06,10:13:26.59966,2.36637,,7.35,-10.546875,-12.5,-12.5,-9.765625,37.5,0,1.4,14.7,37.5,15,0,1093.75,14.43125513,8.683821,-5.74743413,0,1.490208,1.27604166666667,10,0,10.625,-1.09375,14.5098039215686,9.61176470588235,84.2,0,0,14.51934,132.8,82.4,37.5,0,37.5,37.5,
81,2018-08-06,10:13:26.63106,2.39277,,7.35,-10.546875,-12.5,-12.5,-9.765625,37.5,0,1.3,14.7,37.5,15,0,1093.75,14.43125513,8.5873341,-5.84392103,0,1.490208,1.18489583333333,10,0,10.625,-1.09375,14.5098039215686,9.61176470588235,84.2,0,0,14.59267,134.6,82.4,37.5,0,37.5,37.5,
82,2018-08-06,10:13:26.66228,2.4228,,7.35,-10.546875,-12.5,-12.5,-9.765625,37.5,0,1.4,14.7,37.5,15,0,1109.375,14.43125513,8.5873341,-5.84392103,0,1.490208,1.29427083333333,10,0,10.46875,-1.09375,14.5098039215686,9.61176470588235,84.2,0,0,14.59267,134.6,82.4,39.0625,0,37.5,37.5,
83,2018-08-06,10:13:26.69339,2.4511,,7.35,-10.546875,-12.5,-12.5,-9.765625,37.5,0,1.4,14.7,37.5,14,0,1117.1875,14.43125513,8.5873341,-5.84392103,0,1.4706,1.30338541666667,10,0,10.46875,-1.09375,14.5098039215686,9.61176470588235,84.2,0,0,14.59267,134.6,82.4,37.5,0,34.375,37.5,
84,2018-08-06,10:13:26.72478,2.479,,7.35,-10.546875,-12.5,-12.5,-9.765625,37.5,0,1.3,14.7,37.5,13,0,1117.1875,14.43125513,8.5873341,-5.84392103,0,1.4706,1.21028645833333,10,0,10.46875,-1.09375,14.5098039215686,9.61176470588235,84.2,0,0,14.51934,134.6,82.4,37.5,0,37.5,37.5,
85,2018-08-06,10:13:26.75587,2.50949,,7.35,-10.546875,-12.5,-12.5,-9.765625,37.5,0,1.4,14.7,37.5,14,0,1101.5625,14.43125513,8.4908472,-5.94040793,0,1.490208,1.28515625,10,0,10.46875,-1.09375,14.5098039215686,9.61176470588235,84.2,0,0,14.51934,134.6,82.4,37.5,0,37.5,37.5,